Regional Weather Roundup
Issued by NWS

Home | Current Version | Previous Version | Graphics & Text | Print | Product List | Glossary On
Versions: 1 2 3 4 5 6 7 8 9 10 11 12 13 14 15 16 17 18 19 20 21 22 23 24 25 26 27 28 29 30 31 32 33 34 35 36 37 38 39 40 41 42 43 44 45 46 47 48 49 50
000
ASUS43 KLMK 041110
RWRKY
KENTUCKY REGIONAL WEATHER ROUNDUP
NATIONAL WEATHER SERVICE LOUISVILLE KY
700 AM EDT MON MAY 04 2015

NOTE "FAIR" INDICATES FEW OR NO CLOUDS BELOW 12,000 FEET
WITH NO SIGNIFICANT WEATHER AND/OR OBSTRUCTIONS TO VISIBILITY.

KYZ001>023-026-027-061>063-070>075-041200-
WESTERN AND SOUTH CENTRAL KENTUCKY

CITY           SKY/WX    TMP DP  RH WIND       PRES   REMARKS
PADUCAH        PTCLDY    65  51  60 SW7       30.10R
HENDERSON      PTCLDY    61  48  63 S9        30.10R
OWENSBORO      PTCLDY    58  52  80 S8        30.13R
HOPKINSVILLE   CLEAR     61  51  69 S5        30.15R
BOWLING GREEN  CLEAR     53  50  89 CALM      30.16R
GLASGOW        PTCLDY    56  47  72 CALM      30.17R
$$

KYZ024-025-028>034-038-045-046-053-041200-
NORTH CENTRAL KENTUCKY

CITY           SKY/WX    TMP DP  RH WIND       PRES   REMARKS
LOUISVILLE/SDF PTCLDY    58  50  75 SE7       30.14R
LOUISVILLE/LOU CLEAR     60  50  69 SE5       30.14R
FORT KNOX      CLEAR     55  49  79 S3        30.13R
$$

KYZ035>037-039>044-047>052-055>060-089>105-041200-
NORTHEAST KENTUCKY

CITY           SKY/WX    TMP DP  RH WIND       PRES   REMARKS
LEXINGTON      PTCLDY    56  48  74 S7        30.17R
COVINGTON      NOT AVBL
FRANKFORT      PTCLDY    55  48  77 S3        30.15R
$$

KYZ054-064>069-076>088-106>120-041200-
SOUTHEAST KENTUCKY

CITY           SKY/WX    TMP DP  RH WIND       PRES   REMARKS
JACKSON        CLEAR     56  45  66 CALM      30.21R
LONDON         CLEAR     51  45  79 CALM      30.22R
SOMERSET       CLEAR     48  48 100 CALM      30.22R
MIDDLESBORO    CLEAR     46  46  99 CALM      30.26R
MONTICELLO     SUNNY     49  49 100 CALM      30.23R
$$




USA.gov is the U.S. government's official web portal to all federal, state and local government web resources and services.